sat.trackr.live / text

‹ back to catalog

TIGER-7

NORAD 59141 · 2024-043AV

PAYLOAD ACTIVE UNKNOWN

§ Identity

Operator
Country
RWA
Launch date
2024-03-04
Launch site
AFWTR
Launch vehicle
Mass (kg)
RCS (m²)

External: N2YO · Heavens-Above · Gunter

§ Orbital elements

Epoch: 2026-09-22T21:20:50.690976Z

Period
92.86 min
Inclination
97.5590°
Eccentricity
0.0006221
Mean motion
15.50782718 rev/d
Perigee alt
410.2 km
Apogee alt
418.7 km
Semi-major
6,792.6 km
B*
1.8086e-4
RAAN
61.4844°
Arg perigee
154.9646°
Mean anomaly
205.1908°
Rev number
14,310

§ Raw data

TIGER-71 59141U 24043AV  26265.88947559  .00010326  00000+0  18086-3 0  99962 59141  97.5590  61.4844 0006221 154.9646 205.1908 15.50782718143108

JSON: /api/v1/satellites/59141 · /tle

For live sub-satellite position, see the globe view (requires WebGL).

§ Visibility from observer

Set your observer location to see the next 7 days of passes ≥ 10°. The values pass through the URL so the page stays shareable.

No JS? Fill the form by hand. The geolocation button needs JavaScript.

§ Radio — SatNOGS DB

ModeDescriptionDownlinkUplink
BPSK S-band telemetry 2.241 GHz

1 transmitter · refreshed weekly from db.satnogs.org